Regional Weather Roundup
Issued by NWS Sioux Falls, SD

Home | Current Version | Previous Version | Text Only | Print | Product List | Glossary On
Versions: 1 2 3 4 5 6 7 8 9 10 11 12 13 14 15 16 17 18 19 20 21 22 23 24 25 26 27 28 29 30 31 32 33 34 35 36 37 38 39 40 41 42 43 44 45 46 47 48 49 50
000
ASUS43 KFSD 270902
RWRFSD

WEATHER ROUNDUP FOR SE SOUTH DAKOTA/SW MINNESOTA/NW IOWA
NATIONAL WEATHER SERVICE SIOUX FALLS SD
400 AM CDT MON MAR 27 2017

NOTE: "FAIR" INDICATES FEW OR NO CLOUDS BELOW 12,000 FEET WITH NO
SIGNIFICANT WEATHER AND OR OBSTRUCTIONS TO VISIBILITY.


SDZ038>040-050-052>070-271000-
SOUTHEAST SOUTH DAKOTA

CITY           SKY/WX    TMP DP  RH WIND       PRES   REMARKS
BROOKINGS      CLOUDY    34  34 100 CALM      29.94F FOG
CHAMBERLAIN    CLOUDY    33  33 100 CALM      29.94F
HURON          CLOUDY    37  36  96 SE3       29.94F
MADISON        CLOUDY    34  34 100 W5        29.95S WCI  30
MITCHELL       FOG       32  31  96 CALM      29.96F VSB 1/4
SIOUX FALLS    CLOUDY    41  39  93 N3        29.95S
WINNER         FAIR      35  32  88 CALM      29.93F
YANKTON        CLOUDY    43  39  87 CALM      29.95S
$$

MNZ071-072-080-081-089-090-097-098-271000-
SOUTHWEST MINNESOTA

CITY           SKY/WX    TMP DP  RH WIND       PRES   REMARKS
FAIRMONT       CLOUDY    39  37  92 NW8       29.95
JACKSON        CLOUDY    37  37 100 CALM      29.95S
MARSHALL       CLOUDY    38  36  92 N5        29.96S
MONTEVIDEO     CLOUDY    36  36 100 N6        29.97S
PIPESTONE      PTCLDY    34  30  86 CALM      29.94S FOG
REDWOOD FALLS  CLOUDY    40  36  86 NW5       29.94F
TRACY          CLOUDY    40  38  91 N3        29.95F
WINDOM         MOCLDY    39  37  93 W5        29.94F
WORTHINGTON    CLOUDY    36  35  96 W6        29.95F
$$

IAZ001>003-012>014-020>022-031-032-NEZ013-014-SDZ071-271000-
NORTHWEST IOWA

CITY           SKY/WX    TMP DP  RH WIND       PRES   REMARKS
CHEROKEE       CLOUDY    40  40  99 N5        29.95F
ESTHERVILLE    CLOUDY    38  38 100 NW8       29.95R
LE MARS        CLOUDY    43  41  93 CALM      29.96F
ORANGE CITY    CLOUDY    41  39  93 N3        29.95S
SHELDON        CLOUDY    39  39 100 NW5       29.94S
SIOUX CITY     CLOUDY    43  40  89 N3        29.95F
SPENCER        CLOUDY    39  38  96 N3        29.95S
STORM LAKE     CLOUDY    39  39 100 NW8       29.94S
$$

ABBREVIATIONS USED IN REMARKS
   TC - TEMPERATURE IN CELSIUS
  WCI - WIND CHILL INDEX
   HX - HEAT INDEX
  VSB - VISIBILITY





USA.gov is the U.S. government's official web portal to all federal, state and local government web resources and services.